Flag for U.S.A. Weather past 2 weeks in Independence, Missouri, U.S.A.

Now
24 °F

Clear.


Feels Like: 24 °F
Forecast: 13 / 28 °F
Wind: No wind

Location: Lee's Summit Municipal Airport

Current Time: Mar 4, 2015 at 9:37:56 PM

Latest Report: Mar 4, 2015 at 8:53 PM


Visibility: 10 mi

Pressure: 30.42 "Hg

Humidity: 48%

Dew point: 7 °F

Location of IndependenceLocation

Historic Weather in Independence — Graph

°F

Independence temperature yesterday

Maximum temperature yesterday: 46 °F (at 12:53 PM)
Minimum temperature yesterday: 30 °F (at 11:53 PM)
Average temperature yesterday: 37 °F

Past Weeks' High & Low Weather Summary

 TemperatureHumidityPressure
High52 °F (Feb 25, 2:53 PM)97% (Mar 3, 8:01 AM)30.81 "Hg (Mar 3, 8:01 AM)
Low2 °F (Feb 27, 4:53 AM)28% (Feb 23, 3:53 PM)29.71 "Hg (Mar 3, 8:01 AM)
Average24 °F64%30.30 "Hg
* Reported Feb 17 7:53 PM — Mar 4 7:53 PM, Independence, Weather by CustomWeather, © 2015

Note: Actual official high and low records may vary slightly from our data, if they occured in-between our weather recording intervals... More about our weather records

Advertising

Independence weather history for previous 24 hours

 ConditionsComfort  
Time TempWeatherWind HumidityBarometerVisibility
7:53 PM
Wed, Mar 4
27 °FClear.No wind41%30.40 "Hg10 mi
6:53 PM27 °FPassing clouds.6 mph41%30.38 "Hg10 mi
5:53 PM27 °FOvercast.5 mph37%30.36 "Hg10 mi
4:53 PM27 °FSunny.13 mph35%30.32 "Hg10 mi
3:53 PM27 °FOvercast.13 mph35%30.32 "Hg10 mi
2:53 PM26 °FScattered clouds.14 mph35%30.33 "Hg10 mi
1:53 PM25 °FOvercast.12 mph38%30.32 "Hg10 mi
12:53 PM24 °FOvercast.18 mph42%30.34 "Hg10 mi
11:53 AM24 °FOvercast.15 mph46%30.33 "Hg10 mi
10:53 AM22 °FBroken clouds.18 mph55%30.33 "Hg10 mi
9:53 AM21 °FMostly cloudy.14 mph60%30.34 "Hg10 mi
8:53 AM19 °FLight snow. Mostly cloudy.12 mph74%30.32 "Hg2 mi
7:53 AM20 °FMostly cloudy.17 mph57%30.29 "Hg9 mi
6:53 AM20 °FOvercast.14 mph57%30.24 "Hg10 mi
5:53 AM20 °FMostly cloudy.22 mph52%30.23 "Hg10 mi
4:53 AM21 °FOvercast.20 mph57%30.20 "Hg10 mi
3:53 AM21 °FOvercast.23 mph65%30.16 "Hg10 mi
2:53 AM24 °FMostly cloudy.17 mph68%30.13 "Hg10 mi
1:53 AM27 °FOvercast.16 mph66%30.11 "Hg10 mi
12:53 AM29 °FOvercast.10 mph66%30.10 "Hg10 mi
11:53 PM
Tue, Mar 3
30 °FOvercast.13 mph75%30.04 "Hg10 mi
10:53 PM31 °FPassing clouds.17 mph76%30.00 "Hg10 mi
9:53 PM33 °FOvercast.12 mph75%29.99 "Hg10 mi
Weather by CustomWeather, © 2015

See weather overviewHow to use our weather pages